Time,TemperatureF,DewpointF,PressureIn,WindDirection,WindDirectionDegrees,WindSpeedMPH,WindSpeedGustMPH,Humidity,HourlyPrecipIn,Conditions,Clouds,dailyrainin,SoftwareType,DateUTC
2013-03-25 00:00:00,31.0,24.3,29.71,NNE,13,2.0,14.0,76,0.00,,,0.00,Wunderground v.1.15,2013-03-25 04:00:00,
2013-03-25 00:05:00,31.0,24.3,29.71,NNE,17,5.0,10.0,76,0.00,,,0.00,Wunderground v.1.15,2013-03-25 04:05:00,
2013-03-25 00:10:00,31.1,24.4,29.71,NE,36,9.0,11.0,76,0.00,,,0.00,Wunderground v.1.15,2013-03-25 04:10:00,
2013-03-25 00:15:00,31.1,24.4,29.70,NNE,30,3.0,11.0,76,0.00,,,0.00,Wunderground v.1.15,2013-03-25 04:15:00,
2013-03-25 00:20:00,31.1,24.4,29.71,NE,42,8.0,8.0,76,0.00,,,0.00,Wunderground v.1.15,2013-03-25 04:20:00,
2013-03-25 00:25:00,31.2,24.5,29.71,North,5,3.0,11.0,76,0.00,,,0.00,Wunderground v.1.15,2013-03-25 04:25:00,
2013-03-25 00:30:00,31.2,24.5,29.70,NE,54,7.0,7.0,76,0.00,,,0.00,Wunderground v.1.15,2013-03-25 04:30:00,
2013-03-25 00:35:00,31.2,24.2,29.70,NE,46,6.0,13.0,75,0.00,,,0.00,Wunderground v.1.15,2013-03-25 04:35:00,
2013-03-25 00:40:00,31.3,24.3,29.70,East,88,7.0,7.0,75,0.00,,,0.00,Wunderground v.1.15,2013-03-25 04:40:00,
2013-03-25 00:45:00,31.2,24.5,29.70,ENE,68,7.0,10.0,76,0.00,,,0.00,Wunderground v.1.15,2013-03-25 04:45:00,
2013-03-25 00:50:00,31.3,24.3,29.70,NE,53,1.0,6.0,75,0.00,,,0.00,Wunderground v.1.15,2013-03-25 04:50:00,
2013-03-25 00:55:00,31.3,24.3,29.70,ENE,68,11.0,14.0,75,0.00,,,0.00,Wunderground v.1.15,2013-03-25 04:55:00,
2013-03-25 01:00:00,31.3,24.3,29.70,ENE,74,5.0,7.0,75,0.00,,,0.00,Wunderground v.1.15,2013-03-25 05:00:00,
2013-03-25 01:05:00,31.3,24.3,29.70,ENE,65,4.0,16.0,75,0.00,,,0.00,Wunderground v.1.15,2013-03-25 05:05:00,
2013-03-25 01:10:00,31.4,24.4,29.70,NNE,17,7.0,7.0,75,0.00,,,0.00,Wunderground v.1.15,2013-03-25 05:10:00,
2013-03-25 01:15:00,31.3,24.3,29.70,NE,56,4.0,11.0,75,0.00,,,0.00,Wunderground v.1.15,2013-03-25 05:15:00,
2013-03-25 01:20:00,31.3,24.3,29.70,NE,50,6.0,9.0,75,0.00,,,0.00,Wunderground v.1.15,2013-03-25 05:20:00,
2013-03-25 01:25:00,31.3,24.3,29.70,NNE,28,5.0,19.0,75,0.00,,,0.00,Wunderground v.1.15,2013-03-25 05:25:00,
2013-03-25 01:30:00,31.3,24.3,29.69,ENE,64,5.0,7.0,75,0.00,,,0.00,Wunderground v.1.15,2013-03-25 05:30:00,
2013-03-25 01:35:00,31.3,24.3,29.69,NE,42,3.0,14.0,75,0.00,,,0.00,Wunderground v.1.15,2013-03-25 05:35:00,
2013-03-25 01:40:00,31.3,24.3,29.69,NE,39,4.0,6.0,75,0.00,,,0.00,Wunderground v.1.15,2013-03-25 05:40:00,
2013-03-25 01:45:00,31.3,24.6,29.70,NE,36,7.0,9.0,76,0.00,,,0.00,Wunderground v.1.15,2013-03-25 05:45:00,
2013-03-25 01:50:00,31.3,24.6,29.70,NE,38,4.0,5.0,76,0.00,,,0.00,Wunderground v.1.15,2013-03-25 05:50:00,
2013-03-25 01:55:00,31.2,24.5,29.70,NE,41,3.0,10.0,76,0.00,,,0.00,Wunderground v.1.15,2013-03-25 05:55:00,
2013-03-25 02:00:00,31.2,24.5,29.69,ENE,59,4.0,5.0,76,0.00,,,0.00,Wunderground v.1.15,2013-03-25 06:00:00,
2013-03-25 02:05:00,31.2,24.5,29.69,ENE,70,9.0,12.0,76,0.00,,,0.00,Wunderground v.1.15,2013-03-25 06:05:00,
2013-03-25 02:10:00,31.1,24.4,29.69,NE,40,5.0,5.0,76,0.00,,,0.00,Wunderground v.1.15,2013-03-25 06:10:00,
2013-03-25 02:15:00,31.1,24.7,29.69,NE,36,4.0,10.0,77,0.00,,,0.00,Wunderground v.1.15,2013-03-25 06:15:00,
2013-03-25 02:20:00,31.1,24.7,29.69,ENE,57,3.0,5.0,77,0.00,,,0.00,Wunderground v.1.15,2013-03-25 06:20:00,
2013-03-25 02:25:00,31.1,24.7,29.68,NE,38,6.0,8.0,77,0.00,,,0.00,Wunderground v.1.15,2013-03-25 06:25:00,
2013-03-25 02:30:00,31.0,24.6,29.68,ENE,68,7.0,7.0,77,0.00,,,0.00,Wunderground v.1.15,2013-03-25 06:30:00,
2013-03-25 02:35:00,31.1,24.7,29.68,ENE,69,9.0,10.0,77,0.00,,,0.00,Wunderground v.1.15,2013-03-25 06:35:00,
2013-03-25 02:40:00,31.0,24.6,29.68,East,81,8.0,8.0,77,0.00,,,0.00,Wunderground v.1.15,2013-03-25 06:40:00,
2013-03-25 02:45:00,31.0,24.6,29.68,NE,56,5.0,11.0,77,0.00,,,0.00,Wunderground v.1.15,2013-03-25 06:45:00,
2013-03-25 02:50:00,31.0,24.6,29.67,NE,53,4.0,11.0,77,0.00,,,0.00,Wunderground v.1.15,2013-03-25 06:50:00,
2013-03-25 02:55:00,31.0,24.6,29.67,NNE,14,7.0,13.0,77,0.00,,,0.00,Wunderground v.1.15,2013-03-25 06:55:00,
2013-03-25 03:00:00,31.0,24.6,29.67,NE,44,5.0,13.0,77,0.00,,,0.00,Wunderground v.1.15,2013-03-25 07:00:00,
2013-03-25 03:05:00,31.1,24.7,29.67,NNE,12,6.0,11.0,77,0.00,,,0.00,Wunderground v.1.15,2013-03-25 07:05:00,
2013-03-25 03:10:00,31.1,24.7,29.67,NE,44,3.0,13.0,77,0.00,,,0.00,Wunderground v.1.15,2013-03-25 07:10:00,
2013-03-25 03:15:00,31.1,24.7,29.67,NNE,13,8.0,14.0,77,0.00,,,0.00,Wunderground v.1.15,2013-03-25 07:15:00,
2013-03-25 03:20:00,31.2,24.8,29.67,ENE,74,7.0,14.0,77,0.00,,,0.00,Wunderground v.1.15,2013-03-25 07:20:00,
2013-03-25 03:25:00,31.1,24.7,29.67,ENE,67,8.0,10.0,77,0.00,,,0.00,Wunderground v.1.15,2013-03-25 07:25:00,
2013-03-25 03:30:00,31.1,24.7,29.67,North,355,5.0,11.0,77,0.00,,,0.00,Wunderground v.1.15,2013-03-25 07:30:00,
2013-03-25 03:35:00,31.1,24.7,29.67,NE,54,3.0,12.0,77,0.00,,,0.00,Wunderground v.1.15,2013-03-25 07:35:00,
2013-03-25 03:40:00,31.1,24.7,29.67,East,86,5.0,12.0,77,0.00,,,0.00,Wunderground v.1.15,2013-03-25 07:40:00,
2013-03-25 03:45:00,31.1,24.7,29.66,ENE,78,3.0,16.0,77,0.00,,,0.00,Wunderground v.1.15,2013-03-25 07:45:00,
2013-03-25 03:50:00,31.1,24.7,29.66,ENE,63,4.0,16.0,77,0.00,,,0.00,Wunderground v.1.15,2013-03-25 07:50:00,
2013-03-25 03:55:00,31.2,24.8,29.66,ENE,58,5.0,14.0,77,0.00,,,0.00,Wunderground v.1.15,2013-03-25 07:55:00,
2013-03-25 04:00:00,31.1,24.7,29.66,NE,55,7.0,14.0,77,0.00,,,0.00,Wunderground v.1.15,2013-03-25 08:00:00,
2013-03-25 04:05:00,31.2,24.8,29.66,NNE,13,16.0,16.0,77,0.00,,,0.00,Wunderground v.1.15,2013-03-25 08:05:00,
2013-03-25 04:10:00,31.2,24.8,29.66,ENE,67,10.0,16.0,77,0.00,,,0.00,Wunderground v.1.15,2013-03-25 08:10:00,
2013-03-25 04:15:00,31.2,24.8,29.66,ENE,74,5.0,13.0,77,0.00,,,0.00,Wunderground v.1.15,2013-03-25 08:15:00,
2013-03-25 04:20:00,31.1,24.7,29.66,ENE,59,15.0,15.0,77,0.00,,,0.00,Wunderground v.1.15,2013-03-25 08:20:00,
2013-03-25 04:25:00,31.1,24.7,29.65,ENE,67,12.0,14.0,77,0.00,,,0.00,Wunderground v.1.15,2013-03-25 08:25:00,
2013-03-25 04:30:00,31.1,24.7,29.65,NE,50,6.0,14.0,77,0.00,,,0.00,Wunderground v.1.15,2013-03-25 08:30:00,
2013-03-25 04:35:00,31.1,24.7,29.65,ENE,69,5.0,14.0,77,0.00,,,0.00,Wunderground v.1.15,2013-03-25 08:35:00,
2013-03-25 04:40:00,31.1,24.7,29.65,ENE,57,7.0,14.0,77,0.00,,,0.00,Wunderground v.1.15,2013-03-25 08:40:00,
2013-03-25 04:45:00,31.0,24.6,29.65,NNE,27,5.0,11.0,77,0.00,,,0.00,Wunderground v.1.15,2013-03-25 08:45:00,
2013-03-25 04:50:00,31.0,24.9,29.65,NE,50,8.0,13.0,78,0.00,,,0.00,Wunderground v.1.15,2013-03-25 08:50:00,
2013-03-25 04:55:00,30.9,24.8,29.64,NE,48,4.0,12.0,78,0.00,,,0.00,Wunderground v.1.15,2013-03-25 08:55:00,
2013-03-25 05:00:00,30.9,24.8,29.64,ENE,58,10.0,12.0,78,0.00,,,0.00,Wunderground v.1.15,2013-03-25 09:00:00,
2013-03-25 05:04:00,30.8,24.7,29.64,NE,38,7.0,10.0,78,0.00,,,0.00,Wunderground v.1.15,2013-03-25 09:04:00,
2013-03-25 05:09:00,30.8,24.7,29.64,NE,47,2.0,11.0,78,0.00,,,0.00,Wunderground v.1.15,2013-03-25 09:09:00,
2013-03-25 05:14:00,30.8,24.7,29.64,NE,44,4.0,8.0,78,0.00,,,0.00,Wunderground v.1.15,2013-03-25 09:14:00,
2013-03-25 05:19:00,30.7,25.0,29.64,NNE,24,5.0,13.0,79,0.00,,,0.00,Wunderground v.1.15,2013-03-25 09:19:00,
2013-03-25 05:24:00,30.8,25.1,29.64,ENE,66,9.0,12.0,79,0.00,,,0.00,Wunderground v.1.15,2013-03-25 09:24:00,
2013-03-25 05:29:00,30.7,25.0,29.64,ENE,61,5.0,12.0,79,0.00,,,0.00,Wunderground v.1.15,2013-03-25 09:29:00,
2013-03-25 05:34:00,30.7,25.0,29.65,NE,46,7.0,14.0,79,0.00,,,0.00,Wunderground v.1.15,2013-03-25 09:34:00,
2013-03-25 05:39:00,30.7,25.3,29.65,NE,54,11.0,14.0,80,0.00,,,0.00,Wunderground v.1.15,2013-03-25 09:39:00,
2013-03-25 05:44:00,30.6,25.2,29.65,ENE,64,2.0,10.0,80,0.00,,,0.00,Wunderground v.1.15,2013-03-25 09:44:00,
2013-03-25 05:49:00,30.6,25.2,29.65,NE,38,6.0,12.0,80,0.00,,,0.00,Wunderground v.1.15,2013-03-25 09:49:00,
2013-03-25 05:54:00,30.5,25.4,29.65,NE,53,2.0,8.0,81,0.00,,,0.00,Wunderground v.1.15,2013-03-25 09:54:00,
2013-03-25 05:59:00,30.5,25.4,29.65,ENE,76,4.0,9.0,81,0.00,,,0.00,Wunderground v.1.15,2013-03-25 09:59:00,
2013-03-25 06:04:00,30.5,25.4,29.65,NE,55,9.0,11.0,81,0.00,,,0.00,Wunderground v.1.15,2013-03-25 10:04:00,
2013-03-25 06:09:00,30.5,25.4,29.65,NE,36,4.0,11.0,81,0.00,,,0.00,Wunderground v.1.15,2013-03-25 10:09:00,
2013-03-25 06:14:00,30.5,25.4,29.65,East,80,7.0,8.0,81,0.00,,,0.00,Wunderground v.1.15,2013-03-25 10:14:00,
2013-03-25 06:19:00,30.6,25.5,29.65,NNE,22,4.0,9.0,81,0.00,,,0.00,Wunderground v.1.15,2013-03-25 10:19:00,
2013-03-25 06:24:00,30.6,25.5,29.65,ENE,71,7.0,15.0,81,0.00,,,0.00,Wunderground v.1.15,2013-03-25 10:24:00,
2013-03-25 06:29:00,30.6,25.5,29.65,East,80,5.0,15.0,81,0.00,,,0.00,Wunderground v.1.15,2013-03-25 10:29:00,
2013-03-25 06:34:00,30.6,25.5,29.65,NE,53,5.0,11.0,81,0.00,,,0.00,Wunderground v.1.15,2013-03-25 10:34:00,
2013-03-25 06:39:00,30.6,25.5,29.65,East,79,6.0,11.0,81,0.00,,,0.00,Wunderground v.1.15,2013-03-25 10:39:00,
2013-03-25 06:44:00,30.6,25.5,29.65,NNW,348,9.0,14.0,81,0.00,,,0.00,Wunderground v.1.15,2013-03-25 10:44:00,
2013-03-25 06:49:00,30.6,25.5,29.65,ENE,59,4.0,14.0,81,0.00,,,0.00,Wunderground v.1.15,2013-03-25 10:49:00,
2013-03-25 06:54:00,30.6,25.8,29.65,ENE,57,4.0,10.0,82,0.00,,,0.00,Wunderground v.1.15,2013-03-25 10:54:00,
2013-03-25 06:59:00,30.6,25.8,29.65,ENE,57,4.0,10.0,82,0.00,,,0.00,Wunderground v.1.15,2013-03-25 10:59:00,
2013-03-25 07:04:00,30.6,25.8,29.65,ENE,61,3.0,11.0,82,0.00,,,0.00,Wunderground v.1.15,2013-03-25 11:04:00,
2013-03-25 07:09:00,30.6,25.8,29.65,ENE,63,5.0,11.0,82,0.00,,,0.00,Wunderground v.1.15,2013-03-25 11:09:00,
2013-03-25 07:14:00,30.6,25.8,29.65,NE,46,4.0,9.0,82,0.00,,,0.00,Wunderground v.1.15,2013-03-25 11:14:00,
2013-03-25 07:19:00,30.7,25.9,29.65,NE,54,3.0,10.0,82,0.00,,,0.00,Wunderground v.1.15,2013-03-25 11:19:00,
2013-03-25 07:24:00,30.7,25.9,29.65,NNE,25,5.0,10.0,82,0.00,,,0.00,Wunderground v.1.15,2013-03-25 11:24:00,
2013-03-25 07:29:00,30.7,25.9,29.65,ENE,63,3.0,12.0,82,0.00,,,0.00,Wunderground v.1.15,2013-03-25 11:29:00,
2013-03-25 07:34:00,30.7,25.9,29.66,ENE,78,2.0,9.0,82,0.00,,,0.00,Wunderground v.1.15,2013-03-25 11:34:00,
2013-03-25 07:39:00,30.7,25.9,29.66,NNE,17,2.0,9.0,82,0.00,,,0.00,Wunderground v.1.15,2013-03-25 11:39:00,
2013-03-25 07:44:00,30.8,25.7,29.66,NE,51,5.0,12.0,81,0.00,,,0.00,Wunderground v.1.15,2013-03-25 11:44:00,
2013-03-25 07:49:00,30.8,25.7,29.66,NNE,23,2.0,12.0,81,0.00,,,0.00,Wunderground v.1.15,2013-03-25 11:49:00,
2013-03-25 07:54:00,30.8,26.0,29.66,NE,34,9.0,11.0,82,0.00,,,0.00,Wunderground v.1.15,2013-03-25 11:54:00,
2013-03-25 07:59:00,30.8,25.7,29.66,NNE,23,5.0,11.0,81,0.00,,,0.00,Wunderground v.1.15,2013-03-25 11:59:00,
2013-03-25 08:04:00,30.9,25.8,29.66,NE,38,3.0,9.0,81,0.00,,,0.00,Wunderground v.1.15,2013-03-25 12:04:00,
2013-03-25 08:09:00,30.9,25.8,29.66,NNE,21,6.0,14.0,81,0.00,,,0.00,Wunderground v.1.15,2013-03-25 12:09:00,
2013-03-25 08:14:00,30.9,25.8,29.67,ENE,61,4.0,11.0,81,0.00,,,0.00,Wunderground v.1.15,2013-03-25 12:14:00,
2013-03-25 08:19:00,30.9,25.8,29.67,NE,53,4.0,11.0,81,0.00,,,0.00,Wunderground v.1.15,2013-03-25 12:19:00,
2013-03-25 08:24:00,31.0,25.9,29.67,ENE,60,8.0,13.0,81,0.00,,,0.00,Wunderground v.1.15,2013-03-25 12:24:00,
2013-03-25 08:29:00,31.0,25.6,29.67,ENE,65,10.0,13.0,80,0.00,,,0.00,Wunderground v.1.15,2013-03-25 12:29:00,
2013-03-25 08:34:00,31.0,25.6,29.67,ENE,67,5.0,15.0,80,0.00,,,0.00,Wunderground v.1.15,2013-03-25 12:34:00,
2013-03-25 08:39:00,31.0,25.6,29.67,NE,56,5.0,15.0,80,0.00,,,0.00,Wunderground v.1.15,2013-03-25 12:39:00,
2013-03-25 08:44:00,31.1,25.7,29.67,NE,35,5.0,13.0,80,0.00,,,0.00,Wunderground v.1.15,2013-03-25 12:44:00,
2013-03-25 08:49:00,31.1,25.7,29.67,NE,50,4.0,14.0,80,0.00,,,0.00,Wunderground v.1.15,2013-03-25 12:49:00,
2013-03-25 08:54:00,31.1,25.7,29.67,North,5,5.0,15.0,80,0.00,,,0.00,Wunderground v.1.15,2013-03-25 12:54:00,
2013-03-25 08:59:00,31.2,25.7,29.68,NE,46,4.0,15.0,80,0.00,,,0.00,Wunderground v.1.15,2013-03-25 12:59:00,
2013-03-25 09:04:00,31.2,25.7,29.68,ENE,74,4.0,11.0,80,0.00,,,0.00,Wunderground v.1.15,2013-03-25 13:04:00,
2013-03-25 09:09:00,31.2,25.4,29.68,ENE,78,11.0,13.0,79,0.00,,,0.00,Wunderground v.1.15,2013-03-25 13:09:00,
2013-03-25 09:14:00,31.3,25.5,29.68,NNE,12,11.0,11.0,79,0.00,,,0.00,Wunderground v.1.15,2013-03-25 13:14:00,
2013-03-25 09:19:00,31.3,25.5,29.68,NNE,28,10.0,13.0,79,0.00,,,0.00,Wunderground v.1.15,2013-03-25 13:19:00,
2013-03-25 09:24:00,31.4,25.6,29.68,NNE,19,5.0,10.0,79,0.00,,,0.00,Wunderground v.1.15,2013-03-25 13:24:00,
2013-03-25 09:29:00,31.5,25.7,29.68,NE,46,4.0,14.0,79,0.00,,,0.00,Wunderground v.1.15,2013-03-25 13:29:00,
2013-03-25 09:34:00,31.5,25.7,29.68,ENE,73,3.0,16.0,79,0.00,,,0.00,Wunderground v.1.15,2013-03-25 13:34:00,
2013-03-25 09:39:00,31.5,25.4,29.68,NE,49,5.0,16.0,78,0.00,,,0.00,Wunderground v.1.15,2013-03-25 13:39:00,
2013-03-25 09:44:00,31.6,25.5,29.68,NE,42,6.0,13.0,78,0.00,,,0.00,Wunderground v.1.15,2013-03-25 13:44:00,
2013-03-25 09:49:00,31.7,25.6,29.68,NE,42,5.0,13.0,78,0.00,,,0.00,Wunderground v.1.15,2013-03-25 13:49:00,
2013-03-25 09:54:00,31.8,25.4,29.68,NNE,26,9.0,11.0,77,0.00,,,0.00,Wunderground v.1.15,2013-03-25 13:54:00,
2013-03-25 09:59:00,31.9,25.5,29.69,NE,45,5.0,16.0,77,0.00,,,0.00,Wunderground v.1.15,2013-03-25 13:59:00,
2013-03-25 10:04:00,31.9,25.5,29.68,ENE,57,8.0,12.0,77,0.00,,,0.00,Wunderground v.1.15,2013-03-25 14:04:00,
2013-03-25 10:09:00,32.0,25.6,29.69,NNE,27,6.0,17.0,77,0.00,,,0.00,Wunderground v.1.15,2013-03-25 14:09:00,
2013-03-25 10:14:00,32.1,25.7,29.69,NE,48,4.0,10.0,77,0.00,,,0.00,Wunderground v.1.15,2013-03-25 14:14:00,
2013-03-25 10:19:00,32.3,25.6,29.69,ENE,58,11.0,13.0,76,0.00,,,0.00,Wunderground v.1.15,2013-03-25 14:19:00,
2013-03-25 10:24:00,32.4,25.7,29.69,NNE,15,11.0,12.0,76,0.00,,,0.00,Wunderground v.1.15,2013-03-25 14:24:00,
2013-03-25 10:29:00,32.5,25.8,29.70,ENE,60,7.0,12.0,76,0.00,,,0.00,Wunderground v.1.15,2013-03-25 14:29:00,
2013-03-25 10:34:00,32.6,25.9,29.70,ENE,64,5.0,11.0,76,0.00,,,0.00,Wunderground v.1.15,2013-03-25 14:34:00,
2013-03-25 10:39:00,32.8,25.7,29.70,NE,51,9.0,13.0,75,0.00,,,0.00,Wunderground v.1.15,2013-03-25 14:39:00,
2013-03-25 10:44:00,32.9,25.8,29.70,ENE,67,3.0,13.0,75,0.00,,,0.00,Wunderground v.1.15,2013-03-25 14:44:00,
2013-03-25 10:49:00,33.1,25.7,29.70,NNE,17,5.0,15.0,74,0.00,,,0.00,Wunderground v.1.15,2013-03-25 14:49:00,
2013-03-25 10:54:00,33.1,25.7,29.70,ENE,64,10.0,14.0,74,0.00,,,0.00,Wunderground v.1.15,2013-03-25 14:54:00,
2013-03-25 10:59:00,33.1,25.7,29.70,NE,54,11.0,14.0,74,0.00,,,0.00,Wunderground v.1.15,2013-03-25 14:59:00,
2013-03-25 11:04:00,33.2,25.8,29.70,ENE,60,7.0,13.0,74,0.00,,,0.00,Wunderground v.1.15,2013-03-25 15:04:00,
2013-03-25 11:09:00,33.2,25.8,29.70,ENE,60,5.0,13.0,74,0.00,,,0.00,Wunderground v.1.15,2013-03-25 15:09:00,
2013-03-25 11:14:00,33.3,25.9,29.70,NE,45,7.0,14.0,74,0.00,,,0.00,Wunderground v.1.15,2013-03-25 15:14:00,
2013-03-25 11:19:00,33.4,26.3,29.70,NE,40,11.0,15.0,75,0.00,,,0.00,Wunderground v.1.15,2013-03-25 15:19:00,
2013-03-25 11:24:00,33.4,26.0,29.70,NE,46,5.0,16.0,74,0.00,,,0.00,Wunderground v.1.15,2013-03-25 15:24:00,
2013-03-25 11:29:00,33.6,26.2,29.70,North,9,6.0,16.0,74,0.00,,,0.00,Wunderground v.1.15,2013-03-25 15:29:00,
2013-03-25 11:34:00,33.8,26.1,29.70,NNW,340,4.0,11.0,73,0.00,,,0.00,Wunderground v.1.15,2013-03-25 15:34:00,
2013-03-25 11:39:00,34.1,26.3,29.70,NNE,26,6.0,14.0,73,0.00,,,0.00,Wunderground v.1.15,2013-03-25 15:39:00,
2013-03-25 11:44:00,34.0,26.3,29.70,NE,37,5.0,11.0,73,0.00,,,0.00,Wunderground v.1.15,2013-03-25 15:44:00,
2013-03-25 11:49:00,34.1,26.3,29.71,NNE,32,5.0,13.0,73,0.00,,,0.00,Wunderground v.1.15,2013-03-25 15:49:00,
2013-03-25 11:54:00,34.1,26.3,29.71,East,96,6.0,13.0,73,0.00,,,0.00,Wunderground v.1.15,2013-03-25 15:54:00,
2013-03-25 11:59:00,34.1,26.0,29.71,NE,35,4.0,15.0,72,0.00,,,0.00,Wunderground v.1.15,2013-03-25 15:59:00,
2013-03-25 12:04:00,34.2,26.1,29.71,NNW,327,5.0,11.0,72,0.00,,,0.00,Wunderground v.1.15,2013-03-25 16:04:00,
2013-03-25 12:09:00,34.4,26.6,29.71,NNE,13,2.0,12.0,73,0.00,,,0.00,Wunderground v.1.15,2013-03-25 16:09:00,
2013-03-25 12:14:00,34.7,26.6,29.71,North,9,2.0,11.0,72,0.00,,,0.00,Wunderground v.1.15,2013-03-25 16:14:00,
2013-03-25 12:19:00,34.7,26.6,29.71,North,11,2.0,11.0,72,0.00,,,0.00,Wunderground v.1.15,2013-03-25 16:19:00,
2013-03-25 12:24:00,34.6,26.5,29.71,NNE,22,6.0,8.0,72,0.00,,,0.00,Wunderground v.1.15,2013-03-25 16:24:00,
2013-03-25 12:29:00,34.6,26.5,29.71,ENE,63,2.0,11.0,72,0.00,,,0.00,Wunderground v.1.15,2013-03-25 16:29:00,
2013-03-25 12:34:00,34.7,26.6,29.71,NW,320,5.0,11.0,72,0.00,,,0.00,Wunderground v.1.15,2013-03-25 16:34:00,
2013-03-25 12:39:00,35.0,26.9,29.72,ENE,63,7.0,11.0,72,0.00,,,0.00,Wunderground v.1.15,2013-03-25 16:39:00,
2013-03-25 12:44:00,35.3,26.8,29.72,NNE,28,5.0,14.0,71,0.00,,,0.00,Wunderground v.1.15,2013-03-25 16:44:00,
2013-03-25 12:49:00,35.2,26.7,29.72,NE,38,5.0,14.0,71,0.00,,,0.00,Wunderground v.1.15,2013-03-25 16:49:00,
2013-03-25 12:54:00,35.1,26.3,29.72,NNE,27,7.0,11.0,70,0.00,,,0.00,Wunderground v.1.15,2013-03-25 16:54:00,
2013-03-25 12:59:00,35.2,26.7,29.72,NNE,18,4.0,11.0,71,0.00,,,0.00,Wunderground v.1.15,2013-03-25 16:59:00,
2013-03-25 13:04:00,35.6,27.1,29.72,ENE,57,7.0,8.0,71,0.00,,,0.00,Wunderground v.1.15,2013-03-25 17:04:00,
2013-03-25 13:09:00,35.7,26.9,29.72,NNW,346,5.0,11.0,70,0.00,,,0.00,Wunderground v.1.15,2013-03-25 17:09:00,
2013-03-25 13:14:00,35.6,26.8,29.72,NW,306,3.0,11.0,70,0.00,,,0.00,Wunderground v.1.15,2013-03-25 17:14:00,
2013-03-25 13:19:00,35.7,26.9,29.72,NNE,26,4.0,11.0,70,0.00,,,0.00,Wunderground v.1.15,2013-03-25 17:19:00,
2013-03-25 13:24:00,36.1,27.3,29.72,NE,51,3.0,8.0,70,0.00,,,0.00,Wunderground v.1.15,2013-03-25 17:24:00,
2013-03-25 13:29:00,36.6,27.4,29.72,ENE,63,7.0,9.0,69,0.00,,,0.00,Wunderground v.1.15,2013-03-25 17:29:00,
2013-03-25 13:34:00,36.4,26.8,29.72,NNE,29,3.0,11.0,68,0.00,,,0.00,Wunderground v.1.15,2013-03-25 17:34:00,
2013-03-25 13:39:00,36.6,27.4,29.73,NNE,27,4.0,11.0,69,0.00,,,0.00,Wunderground v.1.15,2013-03-25 17:39:00,
2013-03-25 13:44:00,37.3,28.1,29.73,NNE,13,5.0,8.0,69,0.00,,,0.00,Wunderground v.1.15,2013-03-25 17:44:00,
2013-03-25 13:49:00,37.3,27.3,29.73,NNW,338,10.0,15.0,67,0.00,,,0.00,Wunderground v.1.15,2013-03-25 17:49:00,
2013-03-25 13:54:00,37.0,27.4,29.73,ENE,60,10.0,17.0,68,0.00,,,0.00,Wunderground v.1.15,2013-03-25 17:54:00,
2013-03-25 13:59:00,37.0,27.4,29.73,ENE,69,5.0,17.0,68,0.00,,,0.00,Wunderground v.1.15,2013-03-25 17:59:00,
2013-03-25 14:04:00,37.1,27.5,29.73,NE,46,1.0,12.0,68,0.00,,,0.00,Wunderground v.1.15,2013-03-25 18:04:00,
2013-03-25 14:09:00,37.5,27.9,29.73,NE,45,3.0,12.0,68,0.00,,,0.00,Wunderground v.1.15,2013-03-25 18:09:00,
2013-03-25 14:14:00,37.6,27.6,29.73,NE,51,5.0,11.0,67,0.00,,,0.00,Wunderground v.1.15,2013-03-25 18:14:00,
2013-03-25 14:19:00,37.3,27.3,29.73,ENE,68,7.0,11.0,67,0.00,,,0.00,Wunderground v.1.15,2013-03-25 18:19:00,
2013-03-25 14:24:00,37.2,27.2,29.73,NNE,15,6.0,11.0,67,0.00,,,0.00,Wunderground v.1.15,2013-03-25 18:24:00,
2013-03-25 14:29:00,37.6,27.6,29.73,North,349,13.0,17.0,67,0.00,,,0.00,Wunderground v.1.15,2013-03-25 18:29:00,
2013-03-25 14:34:00,37.7,27.4,29.74,ENE,67,7.0,12.0,66,0.00,,,0.00,Wunderground v.1.15,2013-03-25 18:34:00,
2013-03-25 14:39:00,37.9,27.5,29.74,North,351,3.0,12.0,66,0.00,,,0.00,Wunderground v.1.15,2013-03-25 18:39:00,
2013-03-25 14:44:00,38.1,27.7,29.74,NE,44,3.0,12.0,66,0.00,,,0.00,Wunderground v.1.15,2013-03-25 18:44:00,
2013-03-25 14:49:00,38.1,27.4,29.74,North,5,6.0,14.0,65,0.00,,,0.00,Wunderground v.1.15,2013-03-25 18:49:00,
2013-03-25 14:54:00,38.0,27.6,29.74,NNE,18,4.0,10.0,66,0.00,,,0.00,Wunderground v.1.15,2013-03-25 18:54:00,
2013-03-25 14:59:00,37.7,27.4,29.74,ENE,65,7.0,15.0,66,0.00,,,0.00,Wunderground v.1.15,2013-03-25 18:59:00,
2013-03-25 15:04:00,37.7,27.4,29.75,North,360,7.0,10.0,66,0.00,,,0.00,Wunderground v.1.15,2013-03-25 19:04:00,
2013-03-25 15:09:00,37.5,27.2,29.75,NE,36,4.0,17.0,66,0.00,,,0.00,Wunderground v.1.15,2013-03-25 19:09:00,
2013-03-25 15:14:00,37.6,27.6,29.75,NNE,21,4.0,16.0,67,0.00,,,0.00,Wunderground v.1.15,2013-03-25 19:14:00,
2013-03-25 15:19:00,37.7,27.4,29.75,NNW,327,6.0,16.0,66,0.00,,,0.00,Wunderground v.1.15,2013-03-25 19:19:00,
2013-03-25 15:24:00,38.0,27.6,29.75,East,79,8.0,11.0,66,0.00,,,0.00,Wunderground v.1.15,2013-03-25 19:24:00,
2013-03-25 15:29:00,37.8,27.5,29.75,North,5,3.0,11.0,66,0.00,,,0.00,Wunderground v.1.15,2013-03-25 19:29:00,
2013-03-25 15:34:00,37.8,27.5,29.76,NNE,28,2.0,13.0,66,0.00,,,0.00,Wunderground v.1.15,2013-03-25 19:34:00,
2013-03-25 15:39:00,38.0,27.6,29.76,NNE,22,2.0,13.0,66,0.00,,,0.00,Wunderground v.1.15,2013-03-25 19:39:00,
2013-03-25 15:44:00,37.9,27.5,29.76,NNW,347,9.0,12.0,66,0.00,,,0.00,Wunderground v.1.15,2013-03-25 19:44:00,
2013-03-25 15:49:00,37.6,27.3,29.76,NE,51,3.0,13.0,66,0.00,,,0.00,Wunderground v.1.15,2013-03-25 19:49:00,
2013-03-25 15:54:00,37.5,27.2,29.76,NNE,32,2.0,10.0,66,0.00,,,0.00,Wunderground v.1.15,2013-03-25 19:54:00,
2013-03-25 15:59:00,37.7,27.7,29.77,North,10,2.0,10.0,67,0.00,,,0.00,Wunderground v.1.15,2013-03-25 19:59:00,
2013-03-25 16:04:00,37.7,27.4,29.77,NE,38,4.0,10.0,66,0.00,,,0.00,Wunderground v.1.15,2013-03-25 20:04:00,
2013-03-25 16:09:00,37.8,27.5,29.77,NE,52,9.0,12.0,66,0.00,,,0.00,Wunderground v.1.15,2013-03-25 20:09:00,
2013-03-25 16:14:00,37.8,27.5,29.77,North,351,6.0,15.0,66,0.00,,,0.00,Wunderground v.1.15,2013-03-25 20:14:00,
2013-03-25 16:19:00,37.9,27.5,29.77,NNE,30,5.0,15.0,66,0.00,,,0.00,Wunderground v.1.15,2013-03-25 20:19:00,
2013-03-25 16:24:00,38.2,27.8,29.77,NW,306,5.0,12.0,66,0.00,,,0.00,Wunderground v.1.15,2013-03-25 20:24:00,
2013-03-25 16:29:00,38.4,27.7,29.77,NE,36,5.0,12.0,65,0.00,,,0.00,Wunderground v.1.15,2013-03-25 20:29:00,
2013-03-25 16:34:00,38.2,27.5,29.78,North,360,8.0,11.0,65,0.00,,,0.00,Wunderground v.1.15,2013-03-25 20:34:00,
2013-03-25 16:39:00,38.1,27.7,29.78,NE,35,4.0,11.0,66,0.00,,,0.00,Wunderground v.1.15,2013-03-25 20:39:00,
2013-03-25 16:44:00,37.7,28.1,29.78,NNW,344,7.0,12.0,68,0.00,,,0.00,Wunderground v.1.15,2013-03-25 20:44:00,
2013-03-25 16:49:00,37.8,28.2,29.78,NNE,26,4.0,12.0,68,0.00,,,0.00,Wunderground v.1.15,2013-03-25 20:49:00,
2013-03-25 16:54:00,37.9,27.9,29.78,NE,51,4.0,9.0,67,0.00,,,0.00,Wunderground v.1.15,2013-03-25 20:54:00,
2013-03-25 16:59:00,38.0,28.0,29.79,NW,315,5.0,9.0,67,0.00,,,0.00,Wunderground v.1.15,2013-03-25 20:59:00,
2013-03-25 17:04:00,37.9,27.5,29.79,NNE,22,7.0,13.0,66,0.00,,,0.00,Wunderground v.1.15,2013-03-25 21:04:00,
2013-03-25 17:09:00,37.7,27.7,29.79,NNE,31,3.0,13.0,67,0.00,,,0.00,Wunderground v.1.15,2013-03-25 21:09:00,
2013-03-25 17:14:00,37.5,27.9,29.79,NE,53,2.0,9.0,68,0.00,,,0.00,Wunderground v.1.15,2013-03-25 21:14:00,
2013-03-25 17:19:00,37.5,27.9,29.80,North,9,8.0,9.0,68,0.00,,,0.00,Wunderground v.1.15,2013-03-25 21:19:00,
2013-03-25 17:24:00,37.5,27.5,29.80,NNW,344,6.0,13.0,67,0.00,,,0.00,Wunderground v.1.15,2013-03-25 21:24:00,
2013-03-25 17:29:00,37.5,27.5,29.80,NNE,22,5.0,13.0,67,0.00,,,0.00,Wunderground v.1.15,2013-03-25 21:29:00,
2013-03-25 17:34:00,37.4,27.8,29.80,NE,52,5.0,9.0,68,0.00,,,0.00,Wunderground v.1.15,2013-03-25 21:34:00,
2013-03-25 17:39:00,37.4,27.1,29.80,NE,49,5.0,10.0,66,0.00,,,0.00,Wunderground v.1.15,2013-03-25 21:39:00,
2013-03-25 17:44:00,37.4,27.1,29.81,NE,53,3.0,10.0,66,0.00,,,0.00,Wunderground v.1.15,2013-03-25 21:44:00,
2013-03-25 17:49:00,37.3,27.3,29.81,North,9,3.0,10.0,67,0.00,,,0.00,Wunderground v.1.15,2013-03-25 21:49:00,
2013-03-25 17:54:00,37.4,27.4,29.81,NNE,12,3.0,9.0,67,0.00,,,0.00,Wunderground v.1.15,2013-03-25 21:54:00,
2013-03-25 17:59:00,37.4,27.4,29.81,NNW,345,1.0,9.0,67,0.00,,,0.00,Wunderground v.1.15,2013-03-25 21:59:00,
2013-03-25 18:04:00,37.4,27.8,29.82,NNE,30,3.0,8.0,68,0.00,,,0.00,Wunderground v.1.15,2013-03-25 22:04:00,
2013-03-25 18:09:00,37.5,27.9,29.82,ENE,63,7.0,8.0,68,0.00,,,0.00,Wunderground v.1.15,2013-03-25 22:09:00,
2013-03-25 18:14:00,37.4,27.8,29.82,North,9,6.0,9.0,68,0.00,,,0.00,Wunderground v.1.15,2013-03-25 22:14:00,
2013-03-25 18:19:00,37.3,27.7,29.83,NE,48,3.0,10.0,68,0.00,,,0.00,Wunderground v.1.15,2013-03-25 22:19:00,
2013-03-25 18:24:00,37.2,27.6,29.83,North,355,3.0,15.0,68,0.00,,,0.00,Wunderground v.1.15,2013-03-25 22:24:00,
2013-03-25 18:29:00,37.1,27.5,29.83,NNW,338,2.0,15.0,68,0.00,,,0.00,Wunderground v.1.15,2013-03-25 22:29:00,
2013-03-25 18:34:00,37.1,27.5,29.83,NE,55,4.0,11.0,68,0.00,,,0.00,Wunderground v.1.15,2013-03-25 22:34:00,
2013-03-25 18:39:00,37.1,27.5,29.83,NNE,33,3.0,11.0,68,0.00,,,0.00,Wunderground v.1.15,2013-03-25 22:39:00,
2013-03-25 18:44:00,37.1,27.2,29.84,NNE,17,4.0,10.0,67,0.00,,,0.00,Wunderground v.1.15,2013-03-25 22:44:00,
2013-03-25 18:49:00,37.1,27.5,29.84,NE,34,4.0,10.0,68,0.00,,,0.00,Wunderground v.1.15,2013-03-25 22:49:00,
2013-03-25 18:54:00,37.1,27.5,29.84,NE,52,1.0,9.0,68,0.00,,,0.00,Wunderground v.1.15,2013-03-25 22:54:00,
2013-03-25 18:59:00,37.2,27.6,29.85,NNW,328,3.0,9.0,68,0.00,,,0.00,Wunderground v.1.15,2013-03-25 22:59:00,
2013-03-25 19:04:00,37.2,27.6,29.85,NNE,15,3.0,12.0,68,0.00,,,0.00,Wunderground v.1.15,2013-03-25 23:04:00,
2013-03-25 19:09:00,37.1,27.5,29.85,North,9,1.0,12.0,68,0.00,,,0.00,Wunderground v.1.15,2013-03-25 23:09:00,
2013-03-25 19:14:00,37.0,27.8,29.85,NW,325,5.0,11.0,69,0.00,,,0.00,Wunderground v.1.15,2013-03-25 23:14:00,
2013-03-25 19:19:00,36.9,27.7,29.86,NW,325,9.0,13.0,69,0.00,,,0.00,Wunderground v.1.15,2013-03-25 23:19:00,
2013-03-25 19:24:00,36.9,28.0,29.86,NNW,340,4.0,11.0,70,0.00,,,0.00,Wunderground v.1.15,2013-03-25 23:24:00,
2013-03-25 19:29:00,36.8,27.9,29.86,NNW,347,2.0,11.0,70,0.00,,,0.00,Wunderground v.1.15,2013-03-25 23:29:00,
2013-03-25 19:34:00,36.8,28.3,29.87,North,349,4.0,7.0,71,0.00,,,0.00,Wunderground v.1.15,2013-03-25 23:34:00,
2013-03-25 19:39:00,36.7,28.5,29.87,NNE,26,3.0,16.0,72,0.00,,,0.00,Wunderground v.1.15,2013-03-25 23:39:00,
2013-03-25 19:44:00,36.6,28.4,29.88,NNW,348,2.0,10.0,72,0.00,,,0.00,Wunderground v.1.15,2013-03-25 23:44:00,
2013-03-25 19:49:00,36.4,28.2,29.88,NNE,21,2.0,13.0,72,0.00,,,0.00,Wunderground v.1.15,2013-03-25 23:49:00,
2013-03-25 19:54:00,36.3,28.5,29.89,North,5,6.0,9.0,73,0.00,,,0.00,Wunderground v.1.15,2013-03-25 23:54:00,
2013-03-25 19:59:00,36.2,28.4,29.89,North,360,12.0,12.0,73,0.00,,,0.00,Wunderground v.1.15,2013-03-25 23:59:00,
2013-03-25 20:04:00,36.1,28.6,29.89,NW,318,8.0,8.0,74,0.00,,,0.00,Wunderground v.1.15,2013-03-26 00:04:00,
2013-03-25 20:09:00,36.1,28.6,29.89,NNE,15,5.0,12.0,74,0.00,,,0.00,Wunderground v.1.15,2013-03-26 00:09:00,
2013-03-25 20:14:00,36.0,28.5,29.89,NNE,30,2.0,8.0,74,0.00,,,0.00,Wunderground v.1.15,2013-03-26 00:14:00,
2013-03-25 20:19:00,35.9,28.4,29.90,North,9,3.0,11.0,74,0.00,,,0.00,Wunderground v.1.15,2013-03-26 00:19:00,
2013-03-25 20:24:00,35.9,28.4,29.90,NNE,20,2.0,5.0,74,0.00,,,0.00,Wunderground v.1.15,2013-03-26 00:24:00,
2013-03-25 20:29:00,35.8,28.6,29.90,North,5,5.0,11.0,75,0.00,,,0.00,Wunderground v.1.15,2013-03-26 00:29:00,
2013-03-25 20:34:00,35.8,28.6,29.91,NNE,22,0.0,7.0,75,0.00,,,0.00,Wunderground v.1.15,2013-03-26 00:34:00,
2013-03-25 20:39:00,35.7,28.6,29.91,North,9,4.0,12.0,75,0.00,,,0.00,Wunderground v.1.15,2013-03-26 00:39:00,
2013-03-25 20:44:00,35.7,28.6,29.91,NW,325,2.0,10.0,75,0.00,,,0.00,Wunderground v.1.15,2013-03-26 00:44:00,
2013-03-25 20:49:00,35.7,28.6,29.91,NNW,336,3.0,10.0,75,0.00,,,0.00,Wunderground v.1.15,2013-03-26 00:49:00,
2013-03-25 20:54:00,35.7,28.6,29.91,North,360,6.0,11.0,75,0.00,,,0.00,Wunderground v.1.15,2013-03-26 00:54:00,
2013-03-25 20:59:00,35.7,28.6,29.91,NNW,337,7.0,11.0,75,0.00,,,0.00,Wunderground v.1.15,2013-03-26 00:59:00,
2013-03-25 21:04:00,35.7,28.6,29.92,NNW,345,3.0,11.0,75,0.00,,,0.00,Wunderground v.1.15,2013-03-26 01:04:00,
2013-03-25 21:09:00,35.7,28.9,29.92,NNW,342,5.0,11.0,76,0.00,,,0.00,Wunderground v.1.15,2013-03-26 01:09:00,
2013-03-25 21:14:00,35.7,28.9,29.92,NNW,336,5.0,10.0,76,0.00,,,0.00,Wunderground v.1.15,2013-03-26 01:14:00,
2013-03-25 21:19:00,35.7,28.9,29.92,North,350,4.0,10.0,76,0.00,,,0.00,Wunderground v.1.15,2013-03-26 01:19:00,
2013-03-25 21:24:00,35.6,28.8,29.92,NNW,344,2.0,8.0,76,0.00,,,0.00,Wunderground v.1.15,2013-03-26 01:24:00,
2013-03-25 21:29:00,35.6,28.8,29.93,NNW,345,7.0,9.0,76,0.00,,,0.00,Wunderground v.1.15,2013-03-26 01:29:00,
2013-03-25 21:34:00,35.5,28.7,29.93,North,360,5.0,7.0,76,0.00,,,0.00,Wunderground v.1.15,2013-03-26 01:34:00,
2013-03-25 21:39:00,35.5,28.7,29.93,North,355,3.0,10.0,76,0.00,,,0.00,Wunderground v.1.15,2013-03-26 01:39:00,
2013-03-25 21:44:00,35.5,29.0,29.93,NW,326,2.0,8.0,77,0.00,,,0.00,Wunderground v.1.15,2013-03-26 01:44:00,
2013-03-25 21:49:00,35.4,28.9,29.94,NNW,346,5.0,8.0,77,0.00,,,0.00,Wunderground v.1.15,2013-03-26 01:49:00,
2013-03-25 21:53:00,35.4,28.9,29.94,North,355,2.0,11.0,77,0.00,,,0.00,Wunderground v.1.15,2013-03-26 01:53:00,
2013-03-25 21:58:00,35.4,28.9,29.94,NW,317,5.0,11.0,77,0.00,,,0.00,Wunderground v.1.15,2013-03-26 01:58:00,
2013-03-25 22:03:00,35.3,29.1,29.94,North,355,6.0,7.0,78,0.00,,,0.00,Wunderground v.1.15,2013-03-26 02:03:00,
2013-03-25 22:08:00,35.3,29.1,29.94,North,350,3.0,8.0,78,0.00,,,0.00,Wunderground v.1.15,2013-03-26 02:08:00,
2013-03-25 22:13:00,35.2,29.0,29.94,North,350,3.0,6.0,78,0.00,,,0.00,Wunderground v.1.15,2013-03-26 02:13:00,
2013-03-25 22:18:00,35.2,29.3,29.94,North,11,2.0,6.0,79,0.00,,,0.00,Wunderground v.1.15,2013-03-26 02:18:00,
2013-03-25 22:23:00,35.1,29.2,29.94,NNW,344,4.0,6.0,79,0.00,,,0.00,Wunderground v.1.15,2013-03-26 02:23:00,
2013-03-25 22:28:00,35.1,29.2,29.95,NNW,335,3.0,6.0,79,0.00,,,0.00,Wunderground v.1.15,2013-03-26 02:28:00,
2013-03-25 22:33:00,35.1,29.2,29.95,NW,325,5.0,6.0,79,0.00,,,0.00,Wunderground v.1.15,2013-03-26 02:33:00,
2013-03-25 22:38:00,35.1,29.2,29.95,NNW,333,3.0,10.0,79,0.00,,,0.00,Wunderground v.1.15,2013-03-26 02:38:00,
2013-03-25 22:43:00,35.1,29.2,29.95,North,355,2.0,8.0,79,0.00,,,0.00,Wunderground v.1.15,2013-03-26 02:43:00,
2013-03-25 22:48:00,35.1,29.2,29.95,North,350,5.0,8.0,79,0.00,,,0.00,Wunderground v.1.15,2013-03-26 02:48:00,
2013-03-25 22:53:00,35.1,29.2,29.95,NW,321,3.0,7.0,79,0.00,,,0.00,Wunderground v.1.15,2013-03-26 02:53:00,
2013-03-25 22:58:00,35.0,29.1,29.95,North,360,3.0,7.0,79,0.00,,,0.00,Wunderground v.1.15,2013-03-26 02:58:00,
2013-03-25 23:03:00,35.0,29.1,29.95,NNW,341,10.0,10.0,79,0.00,,,0.00,Wunderground v.1.15,2013-03-26 03:03:00,
2013-03-25 23:08:00,35.0,29.1,29.96,NNW,342,3.0,10.0,79,0.00,,,0.00,Wunderground v.1.15,2013-03-26 03:08:00,
2013-03-25 23:13:00,35.0,29.1,29.96,NW,320,3.0,6.0,79,0.00,,,0.00,Wunderground v.1.15,2013-03-26 03:13:00,
2013-03-25 23:18:00,35.0,29.1,29.96,NW,317,5.0,7.0,79,0.00,,,0.00,Wunderground v.1.15,2013-03-26 03:18:00,
2013-03-25 23:23:00,35.0,29.1,29.96,NNW,338,3.0,8.0,79,0.00,,,0.00,Wunderground v.1.15,2013-03-26 03:23:00,
2013-03-25 23:28:00,35.0,29.1,29.96,NNW,330,3.0,8.0,79,0.00,,,0.00,Wunderground v.1.15,2013-03-26 03:28:00,
2013-03-25 23:33:00,35.0,29.1,29.96,North,360,5.0,11.0,79,0.00,,,0.00,Wunderground v.1.15,2013-03-26 03:33:00,
2013-03-25 23:38:00,35.0,28.8,29.96,NW,323,2.0,11.0,78,0.00,,,0.00,Wunderground v.1.15,2013-03-26 03:38:00,
2013-03-25 23:43:00,35.0,28.8,29.96,NNW,346,3.0,10.0,78,0.00,,,0.00,Wunderground v.1.15,2013-03-26 03:43:00,
2013-03-25 23:48:00,35.0,28.8,29.96,North,355,5.0,10.0,78,0.00,,,0.00,Wunderground v.1.15,2013-03-26 03:48:00,
2013-03-25 23:53:00,35.0,28.8,29.96,North,355,5.0,7.0,78,0.00,,,0.00,Wunderground v.1.15,2013-03-26 03:53:00,
2013-03-25 23:58:00,35.0,28.8,29.96,WNW,302,4.0,9.0,78,0.00,,,0.00,Wunderground v.1.15,2013-03-26 03:58:00,